Total_Precipitation_Accumulation
0.03 0.05 0.07 0.09 0.09 0.09 0.12 0.21 0.27 0.29 0.34 0.38 0.47 0.54 0.85 1.09 1.20 1.33 1.52 1.75 1.93 2.12 2.18 2.37 2.77 3.04 3.20 3.33 3.60 3.89 4.26 4.65 4.78 4.62 4.57 4.57 4.40 4.18 3.78 3.62 3.73 3.76 3.53 3.57
0.05 0.08 0.08 0.09 0.09 0.11 0.14 0.23 0.30 0.35 0.37 0.39 0.54 0.66 0.89 1.33 1.49 1.44 1.51 1.53 1.57 2.01 2.22 2.45 2.78 2.93 2.90 3.09 3.39 3.81 4.27 4.61 4.52 4.65 4.90 4.91 4.74 4.15 3.82 3.70 3.69 3.55 3.37 3.32
0.06 0.07 0.06 0.07 0.09 0.12 0.16 0.19 0.26 0.33 0.46 0.44 0.57 1.00 1.16 1.45 1.59 1.47 1.42 1.43 1.38 1.58 1.90 2.06 2.24 2.40 2.66 3.06 3.53 3.88 4.20 4.34 4.37 4.59 4.77 4.52 4.37 3.95 3.84 3.82 3.70 3.48 3.39 3.35
0.05 0.06 0.06 0.08 0.11 0.12 0.18 0.17 0.19 0.27 0.46 0.61 0.68 1.34 1.60 1.79 1.67 1.39 1.40 1.45 1.55 1.67 1.76 1.88 1.92 2.23 2.63 3.07 3.67 4.11 4.12 4.20 4.07 4.21 4.38 4.25 3.94 3.72 3.59 3.56 3.36 3.23 3.13 3.12
0.08 0.07 0.08 0.09 0.09 0.10 0.14 0.14 0.16 0.26 0.39 0.62 0.74 1.16 1.62 1.71 1.61 1.31 1.22 1.42 1.65 1.62 1.67 1.91 1.86 2.06 2.35 2.79 3.21 3.65 4.00 4.08 3.90 3.87 3.98 4.12 3.93 3.63 3.39 3.25 3.18 3.12 3.09 2.91
0.10 0.09 0.10 0.10 0.10 0.09 0.11 0.14 0.24 0.37 0.59 1.00 0.78 0.89 1.31 1.56 1.46 1.22 1.23 1.35 1.52 1.67 1.67 1.83 2.09 2.15 2.31 2.59 2.96 3.26 3.49 3.48 3.44 3.42 3.47 3.57 3.62 3.57 3.33 3.13 3.17 3.13 2.96 2.81
0.19 0.21 0.16 0.13 0.13 0.12 0.13 0.26 0.67 1.08 1.38 1.20 0.81 0.88 1.24 1.19 1.04 0.96 1.04 1.30 1.54 1.81 1.82 1.85 2.04 2.16 2.27 2.38 2.56 2.73 2.81 2.87 2.84 2.87 2.86 2.86 2.98 3.06 2.95 2.86 2.95 2.96 2.84 2.73
0.27 0.28 0.20 0.17 0.15 0.15 0.17 0.30 0.71 0.96 1.12 1.05 0.95 1.16 1.24 0.99 0.86 0.87 0.97 1.15 1.43 1.60 1.64 1.74 1.82 1.76 1.78 1.84 1.98 2.14 2.23 2.26 2.23 2.32 2.42 2.43 2.64 2.66 2.66 2.79 2.69 2.72 2.66 2.64
0.15 0.17 0.17 0.17 0.18 0.18 0.24 0.31 0.34 0.55 0.69 1.08 1.28 1.35 1.23 0.92 1.07 1.07 1.17 1.22 1.24 1.30 1.34 1.35 1.38 1.43 1.54 1.59 1.66 1.79 1.89 1.90 1.84 1.91 2.08 2.15 2.23 2.36 2.45 2.55 2.46 2.33 2.36 2.26
0.09 0.13 0.17 0.14 0.14 0.18 0.26 0.38 0.52 0.76 1.02 1.22 1.36 1.60 1.78 1.59 1.54 1.43 1.55 1.70 1.41 1.15 1.17 1.20 1.18 1.23 1.26 1.31 1.43 1.59 1.69 1.84 1.85 1.82 1.87 1.84 1.95 2.05 2.23 2.31 2.20 2.21 2.30 2.24
0.10 0.13 0.18 0.20 0.18 0.22 0.37 0.46 0.56 0.71 0.83 1.12 1.49 1.68 1.46 1.65 1.68 1.61 1.51 1.51 1.37 1.04 0.96 1.06 0.99 1.01 1.08 1.14 1.25 1.41 1.70 1.86 1.81 1.66 1.72 1.82 1.80 1.88 1.98 2.03 1.97 2.07 2.19 2.32
0.13 0.14 0.19 0.24 0.23 0.21 0.31 0.46 0.56 0.74 0.82 0.92 1.19 1.45 1.06 1.21 1.20 1.16 1.21 1.08 1.00 0.93 0.76 0.87 0.92 0.87 0.92 0.97 1.08 1.26 1.49 1.66 1.68 1.64 1.67 1.79 1.85 1.82 1.79 1.76 1.79 1.86 1.91 1.98
0.14 0.20 0.33 0.53 0.50 0.34 0.30 0.31 0.38 0.48 0.63 0.73 1.05 1.38 0.97 0.97 1.07 1.07 1.03 1.02 0.88 0.93 0.85 0.81 0.91 0.94 0.92 0.94 1.05 1.22 1.26 1.47 1.68 1.69 1.68 1.77 1.72 1.68 1.73 1.87 1.93 1.90 1.91 1.94
0.15 0.18 0.29 0.56 0.60 0.48 0.38 0.36 0.37 0.42 0.57 0.61 0.71 1.06 1.06 1.06 1.10 1.15 1.10 0.95 0.82 0.86 0.92 0.85 0.84 0.84 0.78 0.83 0.97 1.11 1.19 1.34 1.51 1.64 1.74 1.85 1.82 1.83 1.94 2.05 2.12 2.06 1.97 1.99
0.15 0.16 0.19 0.28 0.36 0.36 0.33 0.33 0.35 0.38 0.43 0.56 0.65 0.84 1.00 1.00 1.05 1.18 1.09 0.97 0.94 0.84 0.83 0.85 0.78 0.70 0.67 0.70 0.79 0.98 1.15 1.29 1.43 1.67 1.81 1.91 1.95 1.96 1.99 1.99 2.07 2.06 1.96 1.93
0.21 0.22 0.26 0.34 0.37 0.40 0.37 0.37 0.33 0.32 0.30 0.36 0.55 0.81 0.81 0.79 0.85 1.00 1.02 1.09 1.07 0.96 0.80 0.74 0.74 0.75 0.75 0.70 0.72 0.79 0.96 1.15 1.31 1.55 1.70 1.76 1.89 2.00 1.98 1.93 1.97 1.96 2.00 2.05
0.27 0.32 0.41 0.47 0.50 0.57 0.59 0.48 0.46 0.44 0.41 0.46 0.68 0.83 0.69 0.71 0.76 0.79 0.85 1.00 0.98 0.96 1.02 1.02 0.93 0.93 0.84 0.82 0.85 0.86 0.88 1.06 1.27 1.43 1.55 1.67 1.80 1.88 1.90 1.83 1.89 1.99 2.02 1.99
0.33 0.41 0.46 0.50 0.68 0.94 0.71 0.46 0.40 0.41 0.45 0.43 0.53 0.61 0.59 0.65 0.65 0.72 0.86 0.89 0.86 0.77 0.81 0.97 1.03 1.04 1.00 0.92 0.98 0.99 1.02 1.13 1.30 1.47 1.57 1.63 1.75 1.81 1.83 1.79 1.77 1.83 1.86 1.85
0.31 0.46 0.56 0.64 0.77 0.80 0.70 0.54 0.52 0.54 0.58 0.42 0.47 0.55 0.62 0.70 0.75 0.85 0.77 0.75 0.81 0.75 0.84 0.90 0.97 1.05 1.17 1.19 1.17 1.20 1.31 1.39 1.38 1.44 1.55 1.66 1.77 1.83 1.84 1.86 1.83 1.86 1.86 1.80
0.35 0.47 0.64 0.68 0.94 1.04 0.84 0.61 0.63 0.72 1.04 0.70 0.62 0.72 0.79 0.78 1.04 1.12 0.79 0.80 0.96 0.83 0.81 0.89 0.96 1.00 1.15 1.28 1.31 1.31 1.37 1.42 1.39 1.45 1.56 1.68 1.80 1.93 1.90 1.98 2.00 1.96 1.86 1.79
0.67 0.70 0.73 0.74 0.99 1.10 0.77 0.60 0.71 1.30 1.48 0.92 0.81 0.85 0.90 0.96 1.00 0.94 0.80 0.91 1.07 0.94 0.87 0.80 0.88 1.13 1.23 1.30 1.39 1.43 1.39 1.42 1.46 1.59 1.69 1.79 1.86 1.91 1.90 1.97 2.03 2.02 1.95 1.94
0.97 0.95 0.89 0.96 1.27 1.39 0.84 0.75 1.07 1.28 1.03 0.96 0.90 0.85 0.87 0.87 0.84 0.80 0.75 0.83 0.92 1.00 1.01 0.99 1.07 1.20 1.25 1.31 1.48 1.59 1.61 1.55 1.66 1.76 1.74 1.81 1.92 1.76 1.75 1.99 2.06 2.08 2.10 2.07
1.05 1.10 1.15 1.21 1.35 1.19 1.08 1.12 1.16 1.05 1.13 1.07 0.93 0.87 0.84 0.83 0.82 0.85 0.81 0.75 0.83 0.97 1.00 1.04 1.14 1.17 1.22 1.29 1.45 1.69 1.72 1.65 1.65 1.75 1.80 1.80 1.84 1.95 2.02 2.08 2.13 2.10 2.06 2.05
1.20 1.06 1.29 1.44 1.40 1.29 1.33 1.29 1.22 1.17 1.18 1.10 0.98 0.99 0.91 0.91 1.02 0.99 0.97 0.95 0.88 0.88 0.90 0.96 1.09 1.12 1.23 1.33 1.50 1.76 1.80 1.75 1.78 1.87 1.96 1.94 1.90 1.93 2.10 2.28 2.28 2.19 2.06 2.10
1.42 1.39 1.59 1.80 1.72 1.54 1.39 1.22 1.12 1.07 1.03 0.97 0.97 1.02 1.03 1.01 1.10 1.11 1.16 1.19 1.10 0.98 0.94 1.04 1.20 1.31 1.35 1.40 1.48 1.65 1.80 1.94 2.03 2.07 2.06 2.07 2.09 2.12 2.19 2.19 2.16 2.15 2.10 2.04
1.46 1.67 1.99 2.13 1.75 1.58 1.54 1.37 1.29 1.09 0.99 0.96 0.97 0.97 1.04 1.04 1.09 1.07 1.14 1.22 1.20 1.21 1.28 1.27 1.27 1.40 1.46 1.48 1.55 1.66 1.88 2.15 2.36 2.33 2.24 2.24 2.22 2.23 2.21 2.22 2.06 1.91 1.83 1.76